Edgartown, MA

3:53 AM EST on January 17, 2017 (GMT -0500)
Martha's Vineyard

Weather History for KMVY - June, 2013

Change the Weather History Date:

Wednesday, June 5, 2013

  Actual Average Record
Temperature  
Mean Temperature 56 °F -  
Max Temperature 69 °F 68 °F 80 °F (2005)
Min Temperature 44 °F 52 °F 35 °F (2011)
Degree Days  
Heating Degree Days 9    
Growing Degree Days 6 (Base 50)    
Moisture  
Dew Point 46 °F    
Average Humidity 67    
Maximum Humidity 93    
Minimum Humidity 39    
Precipitation  
Precipitation 0.00 in - - ()
Sea Level Pressure  
Sea Level Pressure 30.16 in    
Wind  
Wind Speed 5 mph (South)    
Max Wind Speed 14 mph    
Max Gust Speed -    
Visibility 10 miles    
Events      
Averages and records for this station are not official NWS values.
T = Trace of Precipitation, MM = Missing Value Source: NWS Daily Summary

Daily Weather History Graph

Daily Weather History Graph

Search for Another Location

Airport or City:

Trip Planner

Search our weather history database for the weather conditions in past years. The results will help you decide how hot, cold, wet, or windy it might be!

Date:

Astronomy

Jun. 05, 2013 Rise Set
Actual Time 5:09 AM EDT 8:12 PM EDT
Civil Twilight 4:36 AM EDT 8:46 PM EDT
Nautical Twilight 3:53 AM EDT 9:28 PM EDT
Astronomical Twilight 3:03 AM EDT 10:19 PM EDT
Moon 3:13 AM EDT (6/5) 5:34 PM EDT (6/5)
Length of Visible Light 16h 09m
Length of Day
15h 02m
Waning Crescent, 8% of the Moon is Illuminated
Jun 5
Waning Crescent
Jun 8
New
Jun 16
First Quarter
Jun 23
Full
Jun 30
Last Quarter

Hourly Weather History & Observations

Time (EDT) Temp. Windchill Dew Point Humidity Pressure Visibility Wind Dir Wind Speed Gust Speed Precip Events Conditions
12:53 AM 46.9 °F - 44.1 °F 90% 30.08 in 10.0 mi ENE 4.6 mph - N/A   Clear
1:53 AM 46.9 °F - 45.0 °F 93% 30.10 in 10.0 mi North 3.5 mph - N/A   Clear
2:53 AM 46.0 °F - 44.1 °F 93% 30.11 in 10.0 mi Calm Calm - N/A   Clear
3:53 AM 44.1 °F 40.1 °F 42.1 °F 93% 30.12 in 10.0 mi North 6.9 mph - N/A   Clear
4:53 AM 44.1 °F 42.5 °F 41.0 °F 89% 30.13 in 10.0 mi North 3.5 mph - N/A   Clear
5:53 AM 46.0 °F - 43.0 °F 89% 30.15 in 10.0 mi Calm Calm - N/A   Clear
6:53 AM 55.9 °F - 50.0 °F 80% 30.15 in 10.0 mi Calm Calm - N/A   Clear
7:53 AM 63.0 °F - 50.0 °F 63% 30.17 in 10.0 mi North 3.5 mph - N/A   Clear
8:53 AM 64.9 °F - 46.9 °F 52% 30.18 in 10.0 mi North 5.8 mph - N/A   Clear
9:53 AM 66.9 °F - 41.0 °F 39% 30.19 in 10.0 mi East 5.8 mph - N/A   Clear
10:53 AM 68.0 °F - 46.9 °F 47% 30.20 in 10.0 mi Variable 6.9 mph - N/A   Clear
10:56 AM 68.0 °F - 48.2 °F 49% 30.19 in 10.0 mi South 5.8 mph - N/A   Clear
11:53 AM 68.0 °F - 45.0 °F 43% 30.20 in 10.0 mi South 9.2 mph - N/A   Clear
12:53 PM 66.9 °F - 43.0 °F 42% 30.19 in 10.0 mi South 11.5 mph - N/A   Clear
1:53 PM 68.0 °F - 46.0 °F 45% 30.18 in 10.0 mi SSW 10.4 mph - N/A   Clear
2:53 PM 66.9 °F - 44.1 °F 44% 30.18 in 10.0 mi South 10.4 mph - N/A   Clear
3:53 PM 66.9 °F - 41.0 °F 39% 30.16 in 10.0 mi South 12.7 mph - N/A   Clear
4:53 PM 64.9 °F - 46.0 °F 50% 30.15 in 10.0 mi SSE 13.8 mph - N/A   Clear
5:53 PM 64.0 °F - 46.0 °F 52% 30.16 in 10.0 mi South 10.4 mph - N/A   Clear
6:53 PM 62.1 °F - 48.9 °F 62% 30.17 in 10.0 mi South 9.2 mph - N/A   Clear
7:53 PM 57.9 °F - 50.0 °F 75% 30.17 in 10.0 mi SSW 4.6 mph - N/A   Clear
8:53 PM 57.0 °F - 51.1 °F 81% 30.17 in 10.0 mi South 5.8 mph - N/A   Clear
9:53 PM 54.0 °F - 50.0 °F 86% 30.19 in 10.0 mi SSW 3.5 mph - N/A   Clear
10:53 PM 54.0 °F - 50.0 °F 86% 30.19 in 10.0 mi South 3.5 mph - N/A   Clear
11:53 PM 54.0 °F - 50.0 °F 86% 30.18 in 10.0 mi Calm Calm - N/A   Clear